Time,TemperatureF,DewpointF,PressureIn,WindDirection,WindDirectionDegrees,WindSpeedMPH,WindSpeedGustMPH,Humidity,HourlyPrecipIn,Conditions,Clouds,dailyrainin,SoftwareType,DateUTC
2013-07-15 00:09:00,73.4,73.0,30.13,ENE,71,0.0,4.0,97,0.00,,,0.10,weatherlink.com 1.10,2013-07-15 04:09:00,
2013-07-15 00:24:00,73.3,72.0,30.13,ENE,73,5.0,8.0,96,0.00,,,0.10,weatherlink.com 1.10,2013-07-15 04:24:00,
2013-07-15 00:39:00,73.5,72.0,30.13,NE,54,0.0,6.0,96,0.01,,,0.11,weatherlink.com 1.10,2013-07-15 04:39:00,
2013-07-15 00:54:00,73.5,72.0,30.12,ENE,75,0.0,1.0,96,0.02,,,0.12,weatherlink.com 1.10,2013-07-15 04:54:00,
2013-07-15 01:09:00,73.5,72.0,30.12,ENE,75,0.0,1.0,96,0.03,,,0.13,weatherlink.com 1.10,2013-07-15 05:09:00,
2013-07-15 01:24:00,73.4,72.0,30.11,ENE,73,0.0,3.0,96,0.04,,,0.14,weatherlink.com 1.10,2013-07-15 05:24:00,
2013-07-15 01:39:00,73.4,73.0,30.11,ENE,73,0.0,2.0,97,0.03,,,0.14,weatherlink.com 1.10,2013-07-15 05:39:00,
2013-07-15 01:54:00,73.3,72.0,30.11,ENE,69,4.0,4.0,97,0.01,,,0.14,weatherlink.com 1.10,2013-07-15 05:54:00,
2013-07-15 02:09:00,73.2,72.0,30.11,ENE,69,1.0,3.0,97,0.01,,,0.14,weatherlink.com 1.10,2013-07-15 06:09:00,
2013-07-15 02:24:00,73.3,72.0,30.10,ENE,69,0.0,3.0,97,0.00,,,0.14,weatherlink.com 1.10,2013-07-15 06:24:00,
2013-07-15 02:39:00,73.4,73.0,30.09,ENE,69,0.0,0.0,97,0.00,,,0.14,weatherlink.com 1.10,2013-07-15 06:39:00,
2013-07-15 02:54:00,73.5,73.0,30.09,ENE,69,0.0,0.0,97,0.00,,,0.14,weatherlink.com 1.10,2013-07-15 06:54:00,
2013-07-15 03:09:00,73.6,73.0,30.09,ENE,69,0.0,1.0,97,0.00,,,0.14,weatherlink.com 1.10,2013-07-15 07:09:00,
2013-07-15 03:24:00,73.9,73.0,30.09,ENE,69,0.0,1.0,98,0.00,,,0.14,weatherlink.com 1.10,2013-07-15 07:24:00,
2013-07-15 03:39:00,73.9,73.0,30.08,ENE,69,0.0,0.0,98,0.00,,,0.14,weatherlink.com 1.10,2013-07-15 07:39:00,
2013-07-15 03:54:00,74.1,74.0,30.08,ENE,69,0.0,0.0,98,0.00,,,0.14,weatherlink.com 1.10,2013-07-15 07:54:00,
2013-07-15 04:09:00,73.8,73.0,30.08,ENE,69,0.0,2.0,98,0.00,,,0.14,weatherlink.com 1.10,2013-07-15 08:09:00,
2013-07-15 04:24:00,73.9,73.0,30.07,ENE,69,0.0,1.0,98,0.00,,,0.14,weatherlink.com 1.10,2013-07-15 08:24:00,
2013-07-15 04:39:00,74.0,73.0,30.07,ENE,69,0.0,1.0,98,0.00,,,0.14,weatherlink.com 1.10,2013-07-15 08:39:00,
2013-07-15 04:54:00,73.7,73.0,30.07,ENE,69,0.0,2.0,98,0.00,,,0.14,weatherlink.com 1.10,2013-07-15 08:54:00,
2013-07-15 05:09:00,73.7,73.0,30.08,ENE,69,0.0,1.0,98,0.00,,,0.14,weatherlink.com 1.10,2013-07-15 09:09:00,
2013-07-15 05:24:00,73.7,73.0,30.08,ESE,119,5.0,7.0,98,0.00,,,0.14,weatherlink.com 1.10,2013-07-15 09:24:00,
2013-07-15 05:39:00,73.4,73.0,30.07,ESE,118,0.0,5.0,97,0.00,,,0.14,weatherlink.com 1.10,2013-07-15 09:39:00,
2013-07-15 05:54:00,73.7,73.0,30.07,ESE,118,0.0,0.0,97,0.03,,,0.17,weatherlink.com 1.10,2013-07-15 09:54:00,
2013-07-15 06:09:00,73.6,73.0,30.07,ESE,102,0.0,3.0,97,0.10,,,0.24,weatherlink.com 1.10,2013-07-15 10:09:00,
2013-07-15 06:24:00,73.5,73.0,30.07,ENE,71,2.0,3.0,97,0.11,,,0.25,weatherlink.com 1.10,2013-07-15 10:24:00,
2013-07-15 06:39:00,73.7,73.0,30.07,NW,316,0.0,4.0,97,0.11,,,0.25,weatherlink.com 1.10,2013-07-15 10:39:00,
2013-07-15 06:54:00,73.9,73.0,30.08,NW,316,0.0,1.0,97,0.08,,,0.25,weatherlink.com 1.10,2013-07-15 10:54:00,
2013-07-15 07:09:00,73.9,73.0,30.09,NW,316,0.0,1.0,97,0.01,,,0.25,weatherlink.com 1.10,2013-07-15 11:09:00,
2013-07-15 07:24:00,74.2,73.0,30.09,NW,316,0.0,2.0,97,0.00,,,0.25,weatherlink.com 1.10,2013-07-15 11:24:00,
2013-07-15 07:39:00,74.4,74.0,30.09,NW,316,0.0,1.0,97,0.00,,,0.25,weatherlink.com 1.10,2013-07-15 11:39:00,
2013-07-15 07:54:00,74.8,74.0,30.10,NW,316,0.0,2.0,97,0.00,,,0.25,weatherlink.com 1.10,2013-07-15 11:54:00,
2013-07-15 08:09:00,75.6,75.0,30.11,NW,316,0.0,3.0,97,0.00,,,0.25,weatherlink.com 1.10,2013-07-15 12:09:00,
2013-07-15 08:24:00,76.6,75.0,30.11,NW,316,2.0,3.0,96,0.00,,,0.25,weatherlink.com 1.10,2013-07-15 12:24:00,
2013-07-15 08:39:00,77.7,76.0,30.10,NW,316,1.0,3.0,94,0.00,,,0.25,weatherlink.com 1.10,2013-07-15 12:39:00,
2013-07-15 08:54:00,78.8,76.0,30.11,NNW,327,0.0,4.0,92,0.00,,,0.25,weatherlink.com 1.10,2013-07-15 12:54:00,
2013-07-15 09:09:00,80.0,77.0,30.11,ENE,61,0.0,6.0,89,0.00,,,0.25,weatherlink.com 1.10,2013-07-15 13:09:00,
2013-07-15 09:24:00,81.4,77.0,30.10,North,5,4.0,5.0,86,0.00,,,0.25,weatherlink.com 1.10,2013-07-15 13:24:00,
2013-07-15 09:39:00,82.9,77.0,30.10,NE,46,0.0,6.0,81,0.00,,,0.25,weatherlink.com 1.10,2013-07-15 13:39:00,
2013-07-15 09:54:00,83.7,76.0,30.10,NNE,28,5.0,8.0,77,0.00,,,0.25,weatherlink.com 1.10,2013-07-15 13:54:00,
2013-07-15 10:09:00,84.5,75.0,30.11,NNE,33,4.0,8.0,74,0.00,,,0.25,weatherlink.com 1.10,2013-07-15 14:09:00,
2013-07-15 10:24:00,85.7,74.0,30.11,ENE,72,0.0,5.0,69,0.00,,,0.25,weatherlink.com 1.10,2013-07-15 14:24:00,
2013-07-15 10:39:00,86.1,75.0,30.11,ENE,77,2.0,7.0,69,0.00,,,0.25,weatherlink.com 1.10,2013-07-15 14:39:00,
2013-07-15 10:54:00,86.7,74.0,30.11,NE,56,5.0,7.0,67,0.00,,,0.25,weatherlink.com 1.10,2013-07-15 14:54:00,
2013-07-15 11:24:00,87.8,74.0,30.12,ENE,67,2.0,8.0,63,0.00,,,0.00,weatherlink.com 1.10,2013-07-15 15:24:00,
2013-07-15 11:39:00,88.1,75.0,30.11,East,92,3.0,9.0,65,0.00,,,0.00,weatherlink.com 1.10,2013-07-15 15:39:00,
2013-07-15 11:54:00,88.8,75.0,30.11,NE,36,2.0,7.0,63,0.00,,,0.00,weatherlink.com 1.10,2013-07-15 15:54:00,
2013-07-15 12:09:00,88.6,75.0,30.11,NE,53,3.0,8.0,64,0.00,,,0.00,weatherlink.com 1.10,2013-07-15 16:09:00,
2013-07-15 12:24:00,88.4,76.0,30.11,ENE,68,5.0,9.0,66,0.00,,,0.00,weatherlink.com 1.10,2013-07-15 16:24:00,
2013-07-15 12:39:00,86.8,75.0,30.11,ENE,76,1.0,11.0,67,0.00,,,0.00,weatherlink.com 1.10,2013-07-15 16:39:00,
2013-07-15 12:55:00,85.7,75.0,30.11,NNE,31,4.0,9.0,71,0.00,,,0.00,weatherlink.com 1.10,2013-07-15 16:55:00,
2013-07-15 13:10:00,84.9,75.0,30.11,ENE,57,3.0,10.0,73,0.00,,,0.00,weatherlink.com 1.10,2013-07-15 17:10:00,
2013-07-15 13:25:00,84.7,75.0,30.11,NE,48,2.0,9.0,73,0.00,,,0.00,weatherlink.com 1.10,2013-07-15 17:25:00,
2013-07-15 13:40:00,86.5,77.0,30.10,East,80,1.0,9.0,72,0.00,,,0.00,weatherlink.com 1.10,2013-07-15 17:40:00,
2013-07-15 13:55:00,88.1,76.0,30.09,NNE,30,1.0,8.0,67,0.00,,,0.00,weatherlink.com 1.10,2013-07-15 17:55:00,
2013-07-15 14:10:00,88.8,76.0,30.08,ENE,78,0.0,9.0,65,0.00,,,0.00,weatherlink.com 1.10,2013-07-15 18:10:00,
2013-07-15 14:25:00,89.3,76.0,30.08,ESE,107,3.0,10.0,64,0.00,,,0.00,weatherlink.com 1.10,2013-07-15 18:25:00,
2013-07-15 14:40:00,87.7,75.0,30.07,ENE,70,3.0,11.0,66,0.00,,,0.00,weatherlink.com 1.10,2013-07-15 18:40:00,
2013-07-15 15:10:00,86.3,75.0,30.06,East,96,3.0,11.0,70,0.00,,,0.00,weatherlink.com 1.10,2013-07-15 19:10:00,
2013-07-15 15:25:00,87.0,76.0,30.06,ENE,67,5.0,10.0,70,0.00,,,0.00,weatherlink.com 1.10,2013-07-15 19:25:00,
2013-07-15 15:40:00,86.7,75.0,30.07,East,79,10.0,13.0,69,0.00,,,0.00,weatherlink.com 1.10,2013-07-15 19:40:00,
2013-07-15 15:55:00,85.7,75.0,30.07,ENE,66,5.0,14.0,71,0.00,,,0.00,weatherlink.com 1.10,2013-07-15 19:55:00,
2013-07-15 16:10:00,85.9,75.0,30.07,East,84,2.0,13.0,70,0.00,,,0.00,weatherlink.com 1.10,2013-07-15 20:10:00,
2013-07-15 16:40:00,83.6,76.0,30.07,NE,50,6.0,14.0,77,0.00,,,0.00,weatherlink.com 1.10,2013-07-15 20:40:00,
2013-07-15 16:55:00,83.3,75.0,30.07,ENE,69,2.0,10.0,76,0.00,,,0.00,weatherlink.com 1.10,2013-07-15 20:55:00,
2013-07-15 17:25:00,83.0,74.0,30.06,North,350,5.0,9.0,73,0.00,,,0.00,weatherlink.com 1.10,2013-07-15 21:25:00,
2013-07-15 17:55:00,83.4,74.0,30.05,ENE,67,4.0,7.0,73,0.00,,,0.00,weatherlink.com 1.10,2013-07-15 21:55:00,
2013-07-15 18:25:00,82.3,73.0,30.07,NE,46,5.0,5.0,74,0.00,,,0.00,weatherlink.com 1.10,2013-07-15 22:25:00,
2013-07-15 18:40:00,82.0,74.0,30.07,NE,38,5.0,6.0,77,0.00,,,0.00,weatherlink.com 1.10,2013-07-15 22:40:00,
2013-07-15 18:55:00,82.0,74.0,30.07,ENE,59,0.0,7.0,77,0.00,,,0.00,weatherlink.com 1.10,2013-07-15 22:55:00,
2013-07-15 19:10:00,81.5,73.0,30.06,NE,47,2.0,5.0,76,0.00,,,0.00,weatherlink.com 1.10,2013-07-15 23:10:00,
2013-07-15 19:25:00,81.5,73.0,30.07,NE,52,0.0,7.0,75,0.00,,,0.00,weatherlink.com 1.10,2013-07-15 23:25:00,
2013-07-15 19:40:00,81.1,73.0,30.07,NE,44,2.0,9.0,77,0.00,,,0.00,weatherlink.com 1.10,2013-07-15 23:40:00,
2013-07-15 19:55:00,80.8,73.0,30.07,East,92,10.0,11.0,78,0.00,,,0.00,weatherlink.com 1.10,2013-07-15 23:55:00,
2013-07-15 20:10:00,78.9,72.0,30.08,East,84,5.0,9.0,78,0.00,,,0.00,weatherlink.com 1.10,2013-07-16 00:10:00,
2013-07-15 20:25:00,78.3,72.0,30.09,NE,44,2.0,8.0,82,0.00,,,0.00,weatherlink.com 1.10,2013-07-16 00:25:00,
2013-07-15 20:40:00,78.0,73.0,30.09,NNE,23,0.0,7.0,85,0.00,,,0.00,weatherlink.com 1.10,2013-07-16 00:40:00,
2013-07-15 20:55:00,78.1,74.0,30.09,NNE,26,0.0,3.0,86,0.00,,,0.00,weatherlink.com 1.10,2013-07-16 00:55:00,
2013-07-15 21:25:00,78.6,74.0,30.09,NE,51,1.0,5.0,86,0.00,,,0.00,weatherlink.com 1.10,2013-07-16 01:25:00,
2013-07-15 21:40:00,78.8,74.0,30.10,NE,56,0.0,4.0,84,0.00,,,0.00,weatherlink.com 1.10,2013-07-16 01:40:00,
2013-07-15 21:55:00,79.4,74.0,30.11,ENE,61,2.0,6.0,82,0.00,,,0.00,weatherlink.com 1.10,2013-07-16 01:55:00,
2013-07-15 22:10:00,79.6,73.0,30.11,ENE,59,2.0,5.0,81,0.00,,,0.00,weatherlink.com 1.10,2013-07-16 02:10:00,
2013-07-15 22:25:00,80.0,74.0,30.11,ENE,78,2.0,9.0,82,0.00,,,0.00,weatherlink.com 1.10,2013-07-16 02:25:00,
2013-07-15 22:40:00,80.0,74.0,30.12,ENE,78,1.0,12.0,83,0.00,,,0.00,weatherlink.com 1.10,2013-07-16 02:40:00,
2013-07-15 22:56:00,80.1,75.0,30.13,ENE,75,2.0,8.0,83,0.00,,,0.00,weatherlink.com 1.10,2013-07-16 02:56:00,
2013-07-15 23:11:00,80.2,74.0,30.13,ENE,71,4.0,9.0,82,0.00,,,0.00,weatherlink.com 1.10,2013-07-16 03:11:00,
2013-07-15 23:26:00,80.3,74.0,30.13,East,82,3.0,11.0,81,0.00,,,0.00,weatherlink.com 1.10,2013-07-16 03:26:00,
2013-07-15 23:41:00,80.2,74.0,30.13,ENE,72,4.0,9.0,80,0.00,,,0.00,weatherlink.com 1.10,2013-07-16 03:41:00,